| time (UTC) | temp F | wind direction | speed knots | gust knots | rain 1hr in | rain 24hr in | rain mn in | humidity % | barometer mb |
| 20260507211738 | 62 | 9 | 3.5 | 5.2 | 0.00 | 0.03 | 0.03 | 34 | 1005.3 |
| 20260507211234 | 62 | 290 | 2.6 | 3.5 | 0.00 | 0.03 | 0.03 | 32 | 1005.4 |
| 20260507210731 | 62 | 19 | 3.5 | 5.2 | 0.00 | 0.03 | 0.03 | 33 | 1005.2 |
| 20260507210228 | 62 | 110 | 0.9 | 1.7 | 0.00 | 0.03 | 0.03 | 33 | 1005.4 |
| 20260507205724 | 62 | 231 | 1.7 | 3.5 | 0.00 | 0.03 | 0.03 | 32 | 1005.4 |
| 20260507205221 | 62 | 207 | 1.7 | 2.6 | 0.00 | 0.03 | 0.03 | 32 | 1005.1 |
| 20260507204717 | 63 | 298 | 4.3 | 7.8 | 0.00 | 0.03 | 0.03 | 31 | 1005.3 |
| 20260507204216 | 62 | 188 | 2.6 | 3.5 | 0.00 | 0.03 | 0.03 | 33 | 1005.4 |
| 20260507203713 | 62 | 247 | 1.7 | 6.1 | 0.00 | 0.03 | 0.03 | 32 | 1005.0 |
| 20260507203210 | 63 | 222 | 2.6 | 3.5 | 0.00 | 0.03 | 0.03 | 32 | 1005.2 |
| 20260507202706 | 62 | 2 | 2.6 | 5.2 | 0.00 | 0.03 | 0.03 | 33 | 1005.3 |
| 20260507202202 | 63 | 9 | 1.7 | 6.1 | 0.00 | 0.03 | 0.03 | 31 | 1005.4 |
| 20260507201657 | 63 | 352 | 0.9 | 2.6 | 0.00 | 0.03 | 0.03 | 31 | 1005.2 |
| 20260507201155 | 63 | 281 | 1.7 | 3.5 | 0.00 | 0.03 | 0.03 | 30 | 1005.3 |
| 20260507200651 | 64 | 325 | 3.5 | 3.5 | 0.00 | 0.03 | 0.03 | 30 | 1005.2 |
| 20260507200147 | 64 | 340 | 1.7 | 7.8 | 0.00 | 0.03 | 0.03 | 30 | 1005.3 |
| 20260507195643 | 63 | 209 | 0.0 | 2.6 | 0.00 | 0.03 | 0.03 | 29 | 1005.6 |
| 20260507195141 | 63 | 8 | 3.5 | 5.2 | 0.00 | 0.03 | 0.03 | 31 | 1005.6 |
| 20260507194637 | 64 | 204 | 2.6 | 5.2 | 0.00 | 0.03 | 0.03 | 29 | 1005.6 |
| 20260507194133 | 63 | 220 | 0.0 | 2.6 | 0.00 | 0.03 | 0.03 | 30 | 1005.5 |
| 20260507193630 | 64 | 14 | 3.5 | 3.5 | 0.00 | 0.03 | 0.03 | 29 | 1005.6 |
| 20260507193128 | 64 | 346 | 2.6 | 7.8 | 0.00 | 0.03 | 0.03 | 31 | 1005.5 |
| 20260507192623 | 64 | 212 | 0.9 | 3.5 | 0.00 | 0.03 | 0.03 | 30 | 1005.7 |
| 20260507192121 | 63 | 290 | 1.7 | 6.1 | 0.00 | 0.03 | 0.03 | 31 | 1005.7 |
| 20260507191616 | 63 | 281 | 0.9 | 5.2 | 0.00 | 0.03 | 0.03 | 30 | 1005.7 |
| 20260507191113 | 63 | 249 | 0.9 | 3.5 | 0.00 | 0.03 | 0.03 | 29 | 1005.9 |
| 20260507190610 | 64 | 265 | 1.7 | 6.1 | 0.00 | 0.03 | 0.03 | 30 | 1005.9 |
| 20260507190109 | 63 | 281 | 0.9 | 6.1 | 0.00 | 0.03 | 0.03 | 29 | 1005.9 |
| 20260507185607 | 65 | 243 | 0.9 | 3.5 | 0.00 | 0.03 | 0.03 | 30 | 1005.7 |
| 20260507185103 | 65 | 217 | 0.9 | 3.5 | 0.00 | 0.03 | 0.03 | 29 | 1005.8 |
| 20260507184601 | 65 | 191 | 4.3 | 6.1 | 0.00 | 0.03 | 0.03 | 28 | 1006.0 |
| 20260507184059 | 65 | 320 | 1.7 | 3.5 | 0.00 | 0.03 | 0.03 | 32 | 1005.9 |
| 20260507183555 | 64 | 82 | 0.9 | 1.7 | 0.00 | 0.03 | 0.03 | 33 | 1005.7 |
| 20260507183052 | 64 | 352 | 1.7 | 3.5 | 0.00 | 0.03 | 0.03 | 29 | 1005.9 |
| 20260507182548 | 63 | 226 | 0.9 | 6.1 | 0.00 | 0.03 | 0.03 | 30 | 1005.9 |
| 20260507182044 | 65 | 216 | 1.7 | 2.6 | 0.00 | 0.03 | 0.03 | 31 | 1006.0 |
| 20260507181542 | 63 | 306 | 3.5 | 5.2 | 0.00 | 0.03 | 0.03 | 30 | 1005.9 |
| 20260507181037 | 63 | 340 | 5.2 | 7.0 | 0.00 | 0.03 | 0.03 | 31 | 1006.0 |
| 20260507180534 | 63 | 323 | 0.9 | 3.5 | 0.00 | 0.03 | 0.03 | 33 | 1006.1 |
| 20260507180031 | 63 | 43 | 1.7 | 6.1 | 0.00 | 0.03 | 0.03 | 31 | 1006.3 |
| 20260507175527 | 63 | 17 | 5.2 | 8.7 | 0.00 | 0.03 | 0.03 | 30 | 1006.1 |
| 20260507175025 | 62 | 39 | 1.7 | 2.6 | 0.00 | 0.03 | 0.03 | 33 | 1006.2 |
| 20260507174522 | 63 | 351 | 0.9 | 6.1 | 0.00 | 0.03 | 0.03 | 33 | 1005.9 |
| 20260507174020 | 63 | 340 | 3.5 | 3.5 | 0.00 | 0.03 | 0.03 | 33 | 1006.1 |
| 20260507173516 | 63 | 31 | 2.6 | 3.5 | 0.00 | 0.03 | 0.03 | 35 | 1005.8 |
| 20260507173014 | 64 | 294 | 0.9 | 2.6 | 0.00 | 0.03 | 0.03 | 35 | 1005.9 |
| 20260507172509 | 63 | 23 | 3.5 | 5.2 | 0.00 | 0.03 | 0.03 | 36 | 1006.2 |
| 20260507172006 | 63 | 330 | 1.7 | 3.5 | 0.00 | 0.03 | 0.03 | 34 | 1006.3 |
| 20260507171502 | 62 | 209 | 0.9 | 5.2 | 0.00 | 0.03 | 0.03 | 36 | 1006.3 |
| 20260507171000 | 62 | 299 | 5.2 | 7.0 | 0.00 | 0.03 | 0.03 | 36 | 1006.7 |
| 20260507170456 | 60 | 288 | 0.9 | 3.5 | 0.00 | 0.03 | 0.03 | 39 | 1006.5 |
| 20260507165952 | 62 | 43 | 1.7 | 6.1 | 0.00 | 0.03 | 0.03 | 39 | 1006.6 |
| 20260507165448 | 62 | 268 | 3.5 | 6.1 | 0.00 | 0.03 | 0.03 | 40 | 1006.6 |
| 20260507164944 | 61 | 165 | 0.0 | 7.0 | 0.00 | 0.03 | 0.03 | 44 | 1006.8 |
| 20260507164441 | 62 | 222 | 1.7 | 5.2 | 0.00 | 0.03 | 0.03 | 46 | 1006.7 |
| 20260507163938 | 60 | 42 | 3.5 | 3.5 | 0.00 | 0.03 | 0.03 | 50 | 1006.7 |
| 20260507163436 | 60 | 225 | 2.6 | 6.1 | 0.00 | 0.03 | 0.03 | 52 | 1006.8 |
| 20260507162933 | 62 | 148 | 0.9 | 3.5 | 0.00 | 0.03 | 0.03 | 51 | 1006.8 |
| 20260507162428 | 62 | 226 | 1.7 | 12.2 | 0.00 | 0.03 | 0.03 | 49 | 1006.9 |
| 20260507161925 | 61 | 302 | 0.9 | 3.5 | 0.00 | 0.03 | 0.03 | 52 | 1007.0 |
| 20260507161421 | 60 | 284 | 2.6 | 3.5 | 0.00 | 0.03 | 0.03 | 52 | 1006.8 |
| 20260507160918 | 60 | 243 | 2.6 | 3.5 | 0.00 | 0.03 | 0.03 | 53 | 1006.8 |
| 20260507160414 | 60 | 152 | 1.7 | 5.2 | 0.00 | 0.03 | 0.03 | 52 | 1006.9 |
| 20260507155910 | 61 | 17 | 3.5 | 3.5 | 0.00 | 0.03 | 0.03 | 53 | 1007.1 |
| 20260507155406 | 60 | 357 | 1.7 | 3.5 | 0.00 | 0.03 | 0.03 | 53 | 1007.1 |
| 20260507154903 | 60 | 94 | 0.9 | 2.6 | 0.00 | 0.03 | 0.03 | 53 | 1007.0 |
| 20260507154400 | 60 | 174 | 1.7 | 5.2 | 0.00 | 0.03 | 0.03 | 53 | 1007.0 |
| 20260507153951 | 60 | 175 | 5.2 | 7.8 | 0.00 | 0.03 | 0.03 | 54 | 1007.0 |
| 20260507153857 | 60 | 175 | 5.2 | 7.8 | 0.00 | 0.03 | 0.03 | 54 | 1007.0 |
| 20260507153354 | 60 | 206 | 0.9 | 3.5 | 0.00 | 0.03 | 0.03 | 56 | 1007.1 |
| 20260507153217 | 61 | 285 | 0.9 | 2.6 | 0.00 | 0.03 | 0.03 | 51 | 1007.2 |
| 20260507152850 | 61 | 285 | 0.9 | 2.6 | 0.00 | 0.03 | 0.03 | 51 | 1007.2 |
| 20260507152602 | 60 | 261 | 1.7 | 2.6 | 0.00 | 0.03 | 0.03 | 51 | 1007.3 |
| 20260507152347 | 61 | 293 | 1.7 | 5.2 | 0.00 | 0.03 | 0.03 | 51 | 1007.4 |
| 20260507151843 | 60 | 261 | 1.7 | 2.6 | 0.00 | 0.03 | 0.03 | 51 | 1007.3 |
| 20260507151339 | 59 | 238 | 0.0 | 5.2 | 0.00 | 0.03 | 0.03 | 52 | 1007.5 |
| 20260507150836 | 61 | 337 | 3.5 | 3.5 | 0.00 | 0.03 | 0.03 | 49 | 1007.5 |
| 20260507150333 | 60 | 294 | 1.7 | 5.2 | 0.00 | 0.03 | 0.03 | 50 | 1007.6 |
| 20260507145828 | 61 | 348 | 3.5 | 6.1 | 0.00 | 0.03 | 0.03 | 49 | 1007.7 |
| 20260507145320 | 61 | 57 | 0.9 | 1.7 | 0.00 | 0.03 | 0.03 | 48 | 1007.6 |
| 20260507144817 | 62 | 205 | 5.2 | 7.0 | 0.00 | 0.03 | 0.03 | 47 | 1007.8 |
| 20260507144314 | 60 | 343 | 2.6 | 3.5 | 0.00 | 0.03 | 0.03 | 48 | 1007.7 |
| 20260507143810 | 59 | 194 | 6.1 | 7.0 | 0.00 | 0.03 | 0.03 | 49 | 1007.7 |
| 20260507143308 | 60 | 51 | 2.6 | 3.5 | 0.00 | 0.03 | 0.03 | 51 | 1007.6 |
| 20260507142804 | 60 | 135 | 0.0 | 0.9 | 0.00 | 0.03 | 0.03 | 49 | 1007.6 |
| 20260507142300 | 60 | 207 | 0.9 | 2.6 | 0.00 | 0.03 | 0.03 | 50 | 1007.7 |
| 20260507141757 | 58 | 68 | 0.0 | 2.6 | 0.00 | 0.03 | 0.03 | 54 | 1007.8 |
| 20260507141254 | 59 | 309 | 3.5 | 5.2 | 0.00 | 0.03 | 0.03 | 51 | 1007.6 |
| 20260507140750 | 58 | 238 | 1.7 | 2.6 | 0.00 | 0.03 | 0.03 | 54 | 1007.6 |
| 20260507140248 | 60 | 33 | 2.6 | 3.5 | 0.00 | 0.03 | 0.03 | 52 | 1007.7 |
| 20260507135745 | 60 | 198 | 0.9 | 2.6 | 0.00 | 0.03 | 0.03 | 52 | 1007.6 |
| 20260507135242 | 59 | 46 | 0.9 | 1.7 | 0.00 | 0.03 | 0.03 | 56 | 1007.6 |
| 20260507134738 | 58 | 37 | 0.9 | 2.6 | 0.00 | 0.03 | 0.03 | 60 | 1007.5 |
| 20260507134235 | 58 | 122 | 0.0 | 1.7 | 0.00 | 0.03 | 0.03 | 58 | 1007.6 |
| 20260507133730 | 57 | 203 | 2.6 | 2.6 | 0.00 | 0.03 | 0.03 | 60 | 1007.8 |
| 20260507133227 | 56 | 74 | 0.9 | 2.6 | 0.00 | 0.03 | 0.03 | 62 | 1007.8 |
| 20260507132725 | 55 | 350 | 1.7 | 2.6 | 0.00 | 0.03 | 0.03 | 60 | 1008.0 |
| 20260507132222 | 55 | 56 | 0.9 | 1.7 | 0.00 | 0.03 | 0.03 | 61 | 1008.0 |
| 20260507131718 | 56 | 49 | 1.7 | 3.5 | 0.00 | 0.03 | 0.03 | 61 | 1007.9 |
| 20260507131216 | 55 | 28 | 3.5 | 3.5 | 0.00 | 0.03 | 0.03 | 60 | 1008.0 |
| 20260507130712 | 56 | 31 | 1.7 | 5.2 | 0.00 | 0.03 | 0.03 | 61 | 1008.1 |
| 20260507130210 | 55 | 65 | 0.0 | 3.5 | 0.00 | 0.03 | 0.03 | 62 | 1008.3 |
| 20260507125708 | 55 | 49 | 1.7 | 2.6 | 0.00 | 0.03 | 0.03 | 64 | 1008.2 |
| 20260507125206 | 56 | 222 | 2.6 | 3.5 | 0.00 | 0.03 | 0.03 | 65 | 1008.2 |
| 20260507124702 | 55 | 139 | 0.0 | 0.9 | 0.00 | 0.03 | 0.03 | 65 | 1008.2 |
| 20260507124159 | 55 | 155 | 0.0 | 0.9 | 0.00 | 0.03 | 0.03 | 70 | 1008.1 |
| 20260507123658 | 53 | 189 | 0.0 | 1.7 | 0.00 | 0.03 | 0.03 | 72 | 1008.1 |
| 20260507123155 | 53 | 320 | 0.9 | 2.6 | 0.00 | 0.03 | 0.03 | 72 | 1008.1 |
| 20260507122650 | 52 | 319 | 0.0 | 1.7 | 0.00 | 0.03 | 0.03 | 74 | 1008.3 |
| 20260507122146 | 53 | 208 | 0.0 | 0.9 | 0.00 | 0.03 | 0.03 | 75 | 1008.2 |
| 20260507121642 | 53 | 192 | 0.0 | 2.6 | 0.00 | 0.03 | 0.03 | 74 | 1008.2 |
| 20260507121138 | 52 | 26 | 0.9 | 2.6 | 0.00 | 0.03 | 0.03 | 76 | 1008.1 |
| 20260507120634 | 52 | 238 | 1.7 | 1.7 | 0.00 | 0.03 | 0.03 | 77 | 1008.2 |
| 20260507120131 | 52 | 174 | 0.0 | 1.7 | 0.00 | 0.03 | 0.03 | 77 | 1008.2 |
| 20260507115627 | 51 | 242 | 0.9 | 1.7 | 0.00 | 0.03 | 0.03 | 78 | 1008.3 |
| 20260507115123 | 51 | 283 | 1.7 | 1.7 | 0.00 | 0.03 | 0.03 | 79 | 1008.1 |
| 20260507114619 | 51 | 164 | 0.0 | 0.0 | 0.00 | 0.03 | 0.03 | 80 | 1007.9 |
| 20260507114116 | 51 | 240 | 0.0 | 0.9 | 0.00 | 0.03 | 0.03 | 81 | 1008.3 |
| 20260507113614 | 50 | 237 | 0.0 | 0.9 | 0.00 | 0.03 | 0.03 | 81 | 1008.1 |
| 20260507113111 | 50 | 237 | 0.9 | 1.7 | 0.00 | 0.03 | 0.03 | 81 | 1008.1 |
| 20260507112609 | 50 | 166 | 0.0 | 0.0 | 0.00 | 0.03 | 0.03 | 84 | 1007.9 |
| 20260507112105 | 50 | 80 | 0.0 | 0.9 | 0.00 | 0.03 | 0.03 | 83 | 1007.9 |
| 20260507111602 | 49 | 80 | 0.9 | 0.9 | 0.00 | 0.03 | 0.03 | 84 | 1007.8 |
| 20260507111059 | 49 | 113 | 0.0 | 0.0 | 0.00 | 0.03 | 0.03 | 85 | 1007.8 |
| 20260507110555 | 49 | 113 | 0.0 | 0.0 | 0.00 | 0.03 | 0.03 | 85 | 1008.0 |
| 20260507110052 | 49 | 136 | 0.0 | 0.0 | 0.00 | 0.03 | 0.03 | 84 | 1008.1 |
| 20260507105548 | 49 | 241 | 0.0 | 1.7 | 0.00 | 0.03 | 0.03 | 83 | 1008.1 |
| 20260507105044 | 49 | 269 | 0.9 | 1.7 | 0.00 | 0.03 | 0.03 | 85 | 1008.1 |
| 20260507104542 | 49 | 237 | 0.9 | 1.7 | 0.00 | 0.03 | 0.03 | 86 | 1007.7 |
| 20260507104038 | 49 | 296 | 0.0 | 1.7 | 0.00 | 0.03 | 0.03 | 88 | 1007.5 |
| 20260507103534 | 48 | 253 | 0.9 | 0.9 | 0.00 | 0.03 | 0.03 | 88 | 1007.6 |
| 20260507103031 | 48 | 197 | 0.0 | 0.9 | 0.00 | 0.03 | 0.03 | 90 | 1007.6 |
| 20260507102528 | 49 | 90 | 0.0 | 0.9 | 0.00 | 0.03 | 0.03 | 91 | 1007.2 |
| 20260507102024 | 49 | 90 | 0.0 | 0.9 | 0.00 | 0.03 | 0.03 | 91 | 1007.0 |
| 20260507101520 | 49 | 57 | 0.0 | 0.9 | 0.00 | 0.03 | 0.03 | 91 | 1007.6 |
| 20260507101016 | 48 | 219 | 0.0 | 0.0 | 0.00 | 0.03 | 0.03 | 92 | 1007.6 |
| 20260507100514 | 48 | 188 | 0.9 | 0.9 | 0.00 | 0.03 | 0.03 | 92 | 1007.1 |
| 20260507100012 | 49 | 323 | 1.7 | 1.7 | 0.00 | 0.03 | 0.03 | 92 | 1007.0 |
| 20260507095509 | 49 | 267 | 0.9 | 1.7 | 0.00 | 0.03 | 0.03 | 92 | 1007.3 |
| 20260507095005 | 49 | 254 | 0.0 | 0.0 | 0.00 | 0.03 | 0.03 | 92 | 1007.4 |
| 20260507094502 | 49 | 211 | 0.0 | 0.0 | 0.05 | 0.03 | 0.03 | 91 | 1007.4 |
| 20260507093959 | 49 | 201 | 0.0 | 0.0 | 0.05 | 0.03 | 0.03 | 91 | 1007.5 |
| 20260507093456 | 49 | 233 | 0.9 | 1.7 | 0.00 | 0.02 | 0.02 | 91 | 1007.4 |
| 20260507092955 | 49 | 299 | 1.7 | 1.7 | 0.00 | 0.02 | 0.02 | 91 | 1007.2 |
| 20260507092450 | 49 | 245 | 0.9 | 0.9 | 0.00 | 0.02 | 0.02 | 90 | 1007.4 |
| 20260507091942 | 49 | 223 | 0.0 | 0.0 | 0.00 | 0.02 | 0.02 | 90 | 1007.4 |
| 20260507091439 | 49 | 320 | 0.0 | 0.9 | 0.00 | 0.02 | 0.02 | 89 | 1007.8 |
| 20260507090934 | 49 | 293 | 0.9 | 0.9 | 0.00 | 0.02 | 0.02 | 90 | 1007.8 |
| 20260507090430 | 50 | 194 | 0.0 | 0.0 | 0.00 | 0.02 | 0.02 | 90 | 1007.6 |
| 20260507085927 | 50 | 200 | 0.0 | 0.0 | 0.00 | 0.02 | 0.02 | 89 | 1007.5 |
| 20260507085424 | 50 | 219 | 0.0 | 0.0 | 0.00 | 0.02 | 0.02 | 90 | 1007.5 |
| 20260507084921 | 49 | 353 | 0.9 | 2.6 | 0.00 | 0.02 | 0.02 | 91 | 1007.6 |
| 20260507084418 | 50 | 83 | 1.7 | 1.7 | 0.00 | 0.02 | 0.02 | 92 | 1007.2 |
| 20260507083915 | 50 | 271 | 1.7 | 1.7 | 0.00 | 0.02 | 0.02 | 92 | 1007.5 |
| 20260507083412 | 50 | 291 | 0.9 | 1.7 | 0.00 | 0.02 | 0.02 | 92 | 1007.1 |
| 20260507082908 | 50 | 286 | 0.9 | 0.9 | 0.00 | 0.02 | 0.02 | 92 | 1007.0 |
| 20260507082404 | 50 | 285 | 0.0 | 0.0 | 0.00 | 0.02 | 0.02 | 92 | 1007.1 |
| 20260507081901 | 50 | 103 | 0.9 | 0.9 | 0.00 | 0.02 | 0.02 | 92 | 1006.8 |
| 20260507081357 | 50 | 104 | 0.9 | 0.9 | 0.00 | 0.02 | 0.02 | 92 | 1007.1 |
| 20260507080854 | 50 | 105 | 0.0 | 0.0 | 0.00 | 0.02 | 0.02 | 91 | 1007.1 |
| 20260507080350 | 50 | 219 | 0.9 | 0.9 | 0.00 | 0.02 | 0.02 | 90 | 1007.5 |
| 20260507075846 | 51 | 207 | 0.0 | 0.0 | 0.07 | 0.02 | 0.02 | 89 | 1007.5 |
| 20260507075342 | 51 | 298 | 0.0 | 1.7 | 0.07 | 0.02 | 0.02 | 88 | 1007.0 |
| 20260507074838 | 51 | 1 | 0.9 | 3.5 | 0.00 | 0.01 | 0.01 | 87 | 1007.0 |
| 20260507074336 | 51 | 203 | 1.7 | 2.6 | 0.00 | 0.01 | 0.01 | 87 | 1007.3 |
| 20260507073833 | 51 | 297 | 1.7 | 2.6 | 0.00 | 0.01 | 0.01 | 88 | 1007.0 |
| 20260507073329 | 51 | 198 | 0.0 | 2.6 | 0.00 | 0.01 | 0.01 | 88 | 1006.9 |
| 20260507072827 | 51 | 334 | 2.6 | 3.5 | 0.00 | 0.01 | 0.01 | 88 | 1006.8 |
| 20260507072324 | 52 | 195 | 0.0 | 0.9 | 0.00 | 0.01 | 0.01 | 89 | 1006.7 |
| 20260507071821 | 51 | 280 | 3.5 | 3.5 | 0.00 | 0.01 | 0.01 | 90 | 1006.6 |
| 20260507071318 | 51 | 279 | 0.9 | 1.7 | 0.00 | 0.01 | 0.01 | 92 | 1006.7 |
| 20260507070815 | 51 | 226 | 0.0 | 0.0 | 0.00 | 0.01 | 0.01 | 93 | 1006.8 |
| 20260507070312 | 52 | 225 | 0.0 | 0.0 | 0.00 | 0.01 | 0.01 | 93 | 1006.5 |
| 20260507065809 | 52 | 116 | 0.0 | 0.0 | 0.00 | 0.01 | 0.01 | 93 | 1006.3 |
| 20260507065306 | 52 | 169 | 0.0 | 0.0 | 0.00 | 0.01 | 0.01 | 93 | 1006.6 |
| 20260507064803 | 52 | 171 | 0.0 | 0.0 | 0.00 | 0.01 | 0.01 | 93 | 1006.5 |
| 20260507064301 | 52 | 181 | 0.0 | 1.7 | 0.00 | 0.01 | 0.01 | 93 | 1006.7 |
| 20260507063759 | 51 | 199 | 0.0 | 0.0 | 0.00 | 0.01 | 0.01 | 92 | 1006.5 |
| 20260507063255 | 51 | 183 | 0.0 | 0.0 | 0.00 | 0.01 | 0.01 | 92 | 1006.6 |
| 20260507062752 | 52 | 183 | 0.0 | 0.0 | 0.00 | 0.01 | 0.01 | 92 | 1006.3 |
| 20260507062249 | 52 | 186 | 0.0 | 0.0 | 0.00 | 0.01 | 0.01 | 92 | 1006.3 |
| 20260507061747 | 52 | 139 | 0.0 | 0.0 | 0.00 | 0.01 | 0.01 | 93 | 1006.3 |
| 20260507061245 | 52 | 103 | 0.0 | 0.0 | 0.00 | 0.01 | 0.01 | 94 | 1006.3 |
| 20260507060743 | 52 | 132 | 0.0 | 0.0 | 0.00 | 0.01 | 0.01 | 94 | 1006.4 |
| 20260507060239 | 52 | 231 | 0.0 | 0.9 | 0.00 | 0.01 | 0.01 | 94 | 1006.5 |
| 20260507055735 | 52 | 177 | 0.0 | 0.9 | 0.00 | 0.01 | 0.01 | 93 | 1006.6 |
| 20260507055231 | 52 | 207 | 0.0 | 0.9 | 0.00 | 0.01 | 0.01 | 93 | 1006.7 |
| 20260507054727 | 52 | 234 | 0.0 | 1.7 | 0.00 | 0.01 | 0.01 | 94 | 1006.8 |
| 20260507054224 | 53 | 35 | 0.0 | 1.7 | 0.00 | 0.01 | 0.01 | 95 | 1006.8 |
| 20260507053722 | 53 | 273 | 0.9 | 1.7 | 0.00 | 0.01 | 0.01 | 96 | 1006.6 |
| 20260507053219 | 54 | 186 | 0.0 | 1.7 | 0.00 | 0.01 | 0.01 | 96 | 1006.8 |
| 20260507052718 | 54 | 278 | 0.0 | 0.0 | 0.00 | 0.01 | 0.01 | 96 | 1006.7 |
| 20260507052214 | 54 | 240 | 0.9 | 1.7 | 0.00 | 0.01 | 0.01 | 96 | 1006.4 |
| 20260507051712 | 55 | 227 | 0.9 | 1.7 | 0.00 | 0.01 | 0.01 | 96 | 1006.5 |
| 20260507051209 | 55 | 294 | 0.9 | 1.7 | 0.00 | 0.01 | 0.01 | 96 | 1006.7 |
| 20260507050705 | 55 | 43 | 1.7 | 1.7 | 0.00 | 0.01 | 0.01 | 96 | 1006.7 |
| 20260507050202 | 56 | 73 | 0.0 | 2.6 | 0.00 | 0.01 | 0.01 | 96 | 1006.9 |
| 20260507045659 | 56 | 344 | 0.9 | 5.2 | 0.00 | 0.01 | 0.01 | 96 | 1007.0 |
| 20260507045156 | 56 | 131 | 0.9 | 1.7 | 0.00 | 0.01 | 0.01 | 96 | 1006.7 |
| 20260507044652 | 56 | 217 | 0.0 | 0.0 | 0.00 | 0.01 | 0.01 | 96 | 1006.6 |
| 20260507044149 | 57 | 206 | 0.0 | 0.0 | 0.00 | 0.01 | 0.01 | 96 | 1006.4 |
| 20260507043645 | 57 | 209 | 0.0 | 0.9 | 0.00 | 0.01 | 0.01 | 95 | 1006.5 |
| 20260507043142 | 57 | 244 | 0.9 | 3.5 | 0.00 | 0.01 | 0.01 | 95 | 1006.6 |
| 20260507042639 | 57 | 192 | 1.7 | 1.7 | 0.00 | 0.01 | 0.01 | 95 | 1006.2 |
| 20260507042134 | 57 | 5 | 2.6 | 5.2 | 0.05 | 0.01 | 0.01 | 95 | 1006.3 |
| 20260507041631 | 58 | 215 | 0.9 | 3.5 | 0.00 | 0.00 | 0.00 | 95 | 1006.3 |
| 20260507041127 | 58 | 220 | 0.9 | 2.6 | 0.00 | 0.00 | 0.00 | 96 | 1006.4 |
| 20260507040625 | 58 | 188 | 0.0 | 0.9 | 0.00 | 0.00 | 0.00 | 96 | 1006.5 |
| 20260507040121 | 58 | 206 | 0.0 | 0.0 | 0.00 | 0.00 | 0.00 | 97 | 1006.4 |
| 20260507035617 | 58 | 183 | 2.6 | 2.6 | 0.00 | 0.23 | 0.23 | 97 | 1006.5 |
| 20260507035113 | 59 | 207 | 0.0 | 1.7 | 0.00 | 0.23 | 0.23 | 97 | 1006.4 |
| 20260507034610 | 59 | 35 | 0.0 | 0.0 | 0.00 | 0.23 | 0.23 | 97 | 1006.2 |
| 20260507034108 | 59 | 149 | 0.9 | 2.6 | 0.00 | 0.23 | 0.23 | 97 | 1006.2 |
| 20260507033606 | 59 | 181 | 0.0 | 0.9 | 0.00 | 0.23 | 0.23 | 97 | 1006.2 |
| 20260507033103 | 59 | 205 | 4.3 | 6.1 | 0.00 | 0.23 | 0.23 | 98 | 1005.9 |
| 20260507032600 | 59 | 248 | 0.9 | 1.7 | 0.00 | 0.23 | 0.23 | 97 | 1005.8 |
| 20260507032056 | 59 | 184 | 2.6 | 6.1 | 0.00 | 0.23 | 0.23 | 98 | 1005.8 |
| 20260507031552 | 59 | 181 | 0.0 | 1.7 | 0.00 | 0.23 | 0.23 | 98 | 1005.7 |
| 20260507031050 | 59 | 188 | 1.7 | 3.5 | 0.00 | 0.23 | 0.23 | 98 | 1005.6 |
| 20260507030546 | 59 | 178 | 0.9 | 7.8 | 0.00 | 0.23 | 0.23 | 98 | 1005.4 |
| 20260507030044 | 59 | 232 | 0.0 | 2.6 | 0.00 | 0.23 | 0.23 | 98 | 1005.4 |
| 20260507025541 | 59 | 141 | 1.7 | 2.6 | 0.00 | 0.23 | 0.23 | 98 | 1005.6 |
| 20260507025038 | 59 | 185 | 0.9 | 6.1 | 0.00 | 0.23 | 0.23 | 98 | 1005.4 |
| 20260507024536 | 59 | 202 | 0.9 | 1.7 | 0.00 | 0.23 | 0.23 | 98 | 1005.6 |
| 20260507024032 | 59 | 168 | 2.6 | 6.1 | 0.00 | 0.23 | 0.23 | 98 | 1005.8 |
| 20260507023528 | 59 | 175 | 0.9 | 2.6 | 0.00 | 0.23 | 0.23 | 98 | 1005.7 |
| 20260507023026 | 59 | 149 | 0.9 | 6.1 | 0.00 | 0.23 | 0.23 | 98 | 1005.7 |
| 20260507022523 | 59 | 196 | 1.7 | 3.5 | 0.00 | 0.23 | 0.23 | 98 | 1005.6 |
| 20260507022018 | 59 | 219 | 2.6 | 7.0 | 0.00 | 0.23 | 0.23 | 98 | 1005.6 |
| 20260507021514 | 59 | 188 | 0.9 | 5.2 | 0.00 | 0.23 | 0.23 | 98 | 1005.6 |
| 20260507021011 | 59 | 194 | 0.9 | 3.5 | 0.00 | 0.23 | 0.23 | 98 | 1005.6 |
| 20260507020508 | 59 | 222 | 0.9 | 5.2 | 0.00 | 0.23 | 0.23 | 98 | 1005.8 |
| 20260507020005 | 59 | 166 | 0.9 | 1.7 | 0.00 | 0.23 | 0.23 | 98 | 1006.0 |
| 20260507015503 | 59 | 271 | 0.0 | 0.9 | 0.00 | 0.23 | 0.23 | 98 | 1006.0 |
| 20260507015000 | 59 | 151 | 0.0 | 3.5 | 0.00 | 0.23 | 0.23 | 98 | 1005.9 |
| 20260507014457 | 59 | 145 | 1.7 | 3.5 | 0.00 | 0.23 | 0.23 | 98 | 1005.8 |
| 20260507013953 | 59 | 173 | 0.0 | 1.7 | 0.00 | 0.23 | 0.23 | 98 | 1006.0 |
| 20260507013449 | 59 | 20 | 3.5 | 3.5 | 0.00 | 0.23 | 0.23 | 98 | 1005.8 |
| 20260507012947 | 59 | 263 | 1.7 | 3.5 | 0.00 | 0.23 | 0.23 | 98 | 1005.8 |
| 20260507012444 | 59 | 187 | 0.0 | 3.5 | 0.00 | 0.23 | 0.23 | 98 | 1006.1 |
| 20260507011940 | 59 | 123 | 1.7 | 2.6 | 0.00 | 0.23 | 0.23 | 98 | 1005.9 |
| 20260507011437 | 59 | 209 | 0.0 | 0.9 | 0.00 | 0.23 | 0.23 | 98 | 1006.1 |
| 20260507010932 | 59 | 186 | 3.5 | 5.2 | 0.00 | 0.23 | 0.23 | 98 | 1006.0 |
| 20260507010427 | 59 | 182 | 0.9 | 3.5 | 0.00 | 0.23 | 0.23 | 98 | 1006.1 |
| 20260507005924 | 59 | 176 | 3.5 | 3.5 | 0.00 | 0.23 | 0.23 | 98 | 1006.1 |
| 20260507005422 | 59 | 159 | 0.0 | 1.7 | 0.00 | 0.23 | 0.23 | 98 | 1006.2 |
| 20260507004918 | 59 | 202 | 2.6 | 6.1 | 0.00 | 0.23 | 0.23 | 98 | 1006.0 |
| 20260507004415 | 59 | 167 | 3.5 | 5.2 | 0.00 | 0.23 | 0.23 | 98 | 1005.9 |
| 20260507003912 | 59 | 200 | 0.9 | 2.6 | 0.00 | 0.23 | 0.23 | 98 | 1006.0 |
| 20260507003407 | 59 | 197 | 0.0 | 1.7 | 0.00 | 0.23 | 0.23 | 98 | 1006.0 |
| 20260507002903 | 59 | 92 | 0.9 | 1.7 | 0.00 | 0.23 | 0.23 | 98 | 1005.8 |
| 20260507002359 | 59 | 182 | 0.9 | 5.2 | 0.00 | 0.23 | 0.23 | 98 | 1005.9 |
| 20260507001856 | 59 | 169 | 0.9 | 5.2 | 0.00 | 0.23 | 0.23 | 98 | 1005.8 |
| 20260507001353 | 59 | 208 | 3.5 | 9.6 | 0.00 | 0.23 | 0.23 | 98 | 1005.7 |
| 20260507000850 | 59 | 185 | 4.3 | 6.1 | 0.00 | 0.23 | 0.23 | 98 | 1005.6 |
| 20260507000345 | 59 | 157 | 0.9 | 7.0 | 0.00 | 0.23 | 0.23 | 98 | 1005.5 |
| 20260506235842 | 59 | 215 | 0.9 | 2.6 | 0.07 | 0.23 | 0.23 | 98 | 1005.5 |
| 20260506235338 | 59 | 132 | 0.0 | 2.6 | 0.07 | 0.23 | 0.23 | 98 | 1005.7 |
| 20260506234829 | 59 | 212 | 3.5 | 6.1 | 0.00 | 0.22 | 0.22 | 98 | 1005.8 |
| 20260506234327 | 59 | 228 | 1.7 | 5.2 | 0.00 | 0.22 | 0.22 | 97 | 1005.6 |
| 20260506233824 | 59 | 232 | 4.3 | 5.2 | 0.07 | 0.22 | 0.22 | 97 | 1005.7 |
| 20260506233320 | 59 | 234 | 0.9 | 1.7 | 0.19 | 0.22 | 0.22 | 97 | 1005.7 |
| 20260506232817 | 59 | 211 | 2.6 | 5.2 | 0.24 | 0.21 | 0.21 | 97 | 1005.6 |
| 20260506232312 | 59 | 127 | 0.9 | 3.5 | 0.12 | 0.18 | 0.18 | 97 | 1005.9 |
| 20260506231809 | 59 | 199 | 2.6 | 2.6 | 0.05 | 0.17 | 0.17 | 97 | 1005.8 |
| 20260506231307 | 60 | 148 | 0.0 | 0.9 | 0.00 | 0.16 | 0.16 | 97 | 1005.7 |
| 20260506230805 | 60 | 191 | 0.0 | 0.0 | 0.00 | 0.16 | 0.16 | 97 | 1006.0 |
| 20260506230301 | 60 | 188 | 0.9 | 5.2 | 0.00 | 0.16 | 0.16 | 97 | 1006.0 |
| 20260506225757 | 60 | 193 | 0.0 | 2.6 | 0.00 | 0.16 | 0.16 | 97 | 1006.0 |
| 20260506225254 | 60 | 216 | 0.0 | 2.6 | 0.00 | 0.16 | 0.16 | 97 | 1006.0 |
| 20260506224745 | 60 | 208 | 0.9 | 5.2 | 0.00 | 0.16 | 0.16 | 97 | 1005.9 |
| 20260506224243 | 60 | 195 | 1.7 | 8.7 | 0.00 | 0.16 | 0.16 | 96 | 1005.9 |
| 20260506223738 | 60 | 190 | 2.6 | 7.0 | 0.07 | 0.16 | 0.16 | 96 | 1005.7 |
| 20260506223234 | 60 | 200 | 0.0 | 6.1 | 0.12 | 0.16 | 0.16 | 96 | 1006.0 |
| 20260506222731 | 60 | 99 | 0.9 | 2.6 | 0.05 | 0.15 | 0.15 | 96 | 1006.0 |
| 20260506222227 | 60 | 190 | 0.9 | 7.0 | 0.00 | 0.14 | 0.14 | 95 | 1006.0 |
| 20260506221725 | 60 | 208 | 4.3 | 6.1 | 0.00 | 0.14 | 0.14 | 95 | 1006.1 |
| 20260506221223 | 60 | 185 | 0.9 | 7.0 | 0.00 | 0.14 | 0.14 | 95 | 1006.1 |
| 20260506220720 | 60 | 197 | 6.1 | 8.7 | 0.00 | 0.14 | 0.14 | 96 | 1006.0 |
| 20260506220214 | 60 | 188 | 6.1 | 7.8 | 0.00 | 0.14 | 0.14 | 96 | 1006.1 |
| 20260506215711 | 60 | 203 | 0.9 | 2.6 | 0.00 | 0.14 | 0.14 | 96 | 1006.1 |
| 20260506215207 | 60 | 235 | 5.2 | 6.1 | 0.00 | 0.14 | 0.14 | 96 | 1006.5 |
| 20260506214704 | 60 | 219 | 2.6 | 7.0 | 0.00 | 0.14 | 0.14 | 96 | 1006.2 |
| 20260506214201 | 60 | 214 | 3.5 | 3.5 | 0.07 | 0.14 | 0.14 | 96 | 1006.4 |
| 20260506213700 | 60 | 204 | 1.7 | 3.5 | 0.07 | 0.14 | 0.14 | 96 | 1006.4 |
| 20260506213156 | 60 | 68 | 0.0 | 6.1 | 0.00 | 0.13 | 0.13 | 96 | 1006.7 |
| 20260506212653 | 60 | 160 | 3.5 | 3.5 | 0.00 | 0.13 | 0.13 | 96 | 1006.6 |